Regional Weather Roundup
Issued by NWS

Home | Current Version | Previous Version | Text Only | Print | Product List | Glossary On
Versions: 1 2 3 4 5 6 7 8 9 10 11 12 13 14 15 16 17 18 19 20 21 22 23 24 25 26 27
000
ASPQ40 PGUM 210812
RWRPQ
WEATHER ROUNDUP FOR THE MARIANAS AND MICRONESIA
NATIONAL WEATHER SERVICE TIYAN GU
600 PM CHST TUE FEB 21 2017

GUZ001>004-210900-
MARIANA ISLANDS-

CITY           SKY/WX    TMP DP  RH WIND       PRES   REMARKS
GUAM AIRPORT   PTCLDY    82  73  74 NE9       29.96R
ANDERSEN AFB   PTCLDY    81  73  78 NE9       29.98R
ROTA AIRPORT   PTCLDY    79  73  83 NE10      29.97R
TINIAN AP      NOT AVBL
SAIPAN AP      CLOUDY    79  75  89 NE9       29.97R

$$

PMZ161-210900-
REPUBLIC OF PALAU-

CITY           SKY/WX    TMP DP  RH WIND       PRES   REMARKS
KOROR AP       CLOUDY    82  77  83 NE9       29.83R HX  91
KOROR WSO      CLOUDY    84  75  74 E9        29.83R HX  92

$$

PMZ171>174-210900-
FEDERATED STATES OF MICRONESIA-

CITY           SKY/WX    TMP DP  RH WIND       PRES   REMARKS
YAP AIRPORT    PTSUNNY   82  75  78 E12       29.84R
CHUUK AP       CLOUDY    84  75  74 NE10      29.84R HX  92
POHNPEI AP     NOT AVBL
POHNPEI WSO    PTCLDY    82  73  74 E8        29.87R
KOSRAE AP      NOT AVBL

$$

PMZ181-210900-
REPUBLIC OF THE MARSHALL ISLANDS-

CITY           SKY/WX    TMP DP  RH WIND       PRES   REMARKS
KWAJALEIN AP   PTCLDY    82  73  74 E22       29.88R
MAJURO AP      MOCLDY    82  75  78 E13       29.84R
MAJURO WSO     MOCLDY    82  75  78 E13       29.85R

$$





USA.gov is the U.S. government's official web portal to all federal, state and local government web resources and services.